Home   Weather   Seevetal   Past weeks

Flag for Germany Past Weather in Seevetal, Lower Saxony, Germany — Yesterday and Last 2 Weeks

Now
55 °F

Clear.


Feels Like: 55 °F
Forecast: 52 / 71 °F
Wind: 3 mph from North

Location: Hamburg-Finkenwerder

Current Time: Sep 1, 2016 at 7:37:37 AM

Latest Report: Sep 1, 2016 at 6:50 AM


Visibility: 10 mi

Pressure: 30.09 "Hg

Humidity: 100%

Dew Point: 55 °F

Location of SeevetalLocation

Past Weather in Seevetal — Graph

°F

Seevetal Temperature Yesterday

Maximum temperature yesterday: 79 °F (at 3:50 PM)
Minimum temperature yesterday: 55 °F (at 5:50 AM)
Average temperature yesterday: 71 °F

High & Low Weather Summary for the Past Weeks

 TemperatureHumidityPressure
High90 °F (Aug 25, 2:50 PM)100% (Aug 17, 6:20 AM)30.30 "Hg (Aug 17, 6:20 AM)
Low48 °F (Aug 17, 6:20 AM)30% (Aug 31, 3:50 PM)29.80 "Hg (Aug 19, 6:20 PM)
Average69 °F73%30.06 "Hg
* Reported Aug 17 6:20 AM — Sep 1 6:20 AM, Seevetal, Weather by CustomWeather, © 2016

Note: Actual official high and low records may vary slightly from our data, if they occured in-between our weather recording intervals... More about our weather records

Advertising

Seevetal Weather History for the Previous 24 Hours

Scroll right to see more
 ConditionsComfort  
Time TempWeatherWind HumidityBarometerVisibility
6:20 AM
Thu, Sep 1
55 °FClear.5 mph100%30.09 "Hg10 mi
5:50 AM55 °FClear.3 mph100%30.09 "Hg10 mi
8:50 PM
Wed, Aug 31
72 °FPassing clouds.10 mph61%30.07 "HgN/A
8:20 PM70 °FSunny.3 mph69%30.07 "Hg10 mi
7:50 PM73 °FSunny.3 mph50%30.07 "Hg10 mi
7:20 PM77 °FSunny.2 mph42%30.07 "Hg10 mi
6:50 PM77 °FPassing clouds.5 mph42%30.07 "HgN/A
6:20 PM77 °FSunny.8 mph36%30.07 "Hg10 mi
5:50 PM79 °FPassing clouds.6 mph34%30.07 "HgN/A
5:20 PM79 °FSunny.9 mph34%30.09 "Hg10 mi
4:50 PM79 °FSunny.10 mph32%30.09 "Hg10 mi
4:20 PM79 °FPassing clouds.9 mph32%30.09 "HgN/A
3:50 PM79 °FPassing clouds.8 mph30%30.09 "HgN/A
3:20 PM77 °FPassing clouds.8 mph34%30.09 "HgN/A
2:50 PM77 °FPassing clouds.8 mph36%30.12 "HgN/A
2:20 PM77 °FPassing clouds.9 mph39%30.12 "HgN/A
1:50 PM75 °FPassing clouds.7 mph41%30.15 "HgN/A
1:20 PM75 °FPassing clouds.8 mph41%30.15 "HgN/A
12:50 PM73 °FPassing clouds.7 mph44%30.15 "HgN/A
12:20 PM73 °FPassing clouds.8 mph44%30.15 "HgN/A
11:50 AM73 °FSunny.5 mph47%30.15 "Hg10 mi
11:20 AM72 °FPassing clouds.5 mph47%30.18 "HgN/A
10:50 AM70 °FSunny.5 mph64%30.18 "Hg10 mi
10:20 AM68 °FPassing clouds.5 mph64%30.18 "HgN/A
9:50 AM66 °FPassing clouds.6 mph68%30.18 "HgN/A
9:20 AM64 °FPassing clouds.5 mph73%30.18 "HgN/A
8:50 AM63 °FPassing clouds.5 mph83%30.21 "HgN/A
8:20 AM61 °FPassing clouds.5 mph88%30.21 "HgN/A
7:50 AM59 °FSunny.3 mph94%30.21 "Hg10 mi
7:20 AM57 °FClear.3 mph100%30.21 "Hg10 mi
Weather by CustomWeather, © 2016

See weather overviewHow to use our weather pages